TimeEDT,TemperatureF,Dew PointF,Humidity,Sea Level PressureIn,VisibilityMPH,Wind Direction,Wind SpeedMPH,Gust SpeedMPH,PrecipitationIn,Events,Conditions,WindDirDegrees,DateUTC
12:15 AM,32.0,21.2,64,30.00,10.0,NNW,4.6,-,N/A,,Clear,340,2013-03-22 04:15:00
12:35 AM,32.0,21.2,64,30.00,10.0,Calm,Calm,-,N/A,,Scattered Clouds,0,2013-03-22 04:35:00
12:55 AM,32.0,21.2,64,29.99,10.0,NNW,4.6,-,N/A,,Scattered Clouds,340,2013-03-22 04:55:00
1:15 AM,32.0,19.4,60,30.00,10.0,Calm,Calm,-,N/A,,Clear,0,2013-03-22 05:15:00
1:35 AM,32.0,21.2,64,30.00,10.0,NNW,4.6,-,N/A,,Clear,340,2013-03-22 05:35:00
1:55 AM,32.0,21.2,64,30.01,10.0,NW,4.6,-,N/A,,Clear,310,2013-03-22 05:55:00
2:15 AM,33.8,21.2,60,30.02,10.0,NW,4.6,-,N/A,,Clear,310,2013-03-22 06:15:00
2:35 AM,33.8,21.2,60,30.02,10.0,NNW,3.5,-,N/A,,Clear,330,2013-03-22 06:35:00
2:55 AM,32.0,21.2,64,30.02,10.0,NW,4.6,-,N/A,,Scattered Clouds,320,2013-03-22 06:55:00
3:15 AM,32.0,21.2,64,30.01,10.0,NW,4.6,-,N/A,,Mostly Cloudy,320,2013-03-22 07:15:00
3:35 AM,32.0,21.2,64,30.00,10.0,Calm,Calm,-,N/A,,Overcast,0,2013-03-22 07:35:00
3:55 AM,32.0,21.2,64,30.00,10.0,Calm,Calm,-,N/A,,Mostly Cloudy,0,2013-03-22 07:55:00
4:15 AM,32.0,21.2,64,30.00,10.0,Calm,Calm,-,N/A,,Overcast,0,2013-03-22 08:15:00
4:35 AM,33.8,21.2,60,30.01,10.0,Calm,Calm,-,N/A,,Overcast,0,2013-03-22 08:35:00
4:55 AM,33.8,21.2,60,30.01,10.0,Calm,Calm,-,N/A,,Overcast,0,2013-03-22 08:55:00
5:15 AM,33.8,21.2,60,30.00,10.0,Calm,Calm,-,N/A,,Overcast,0,2013-03-22 09:15:00
5:35 AM,33.8,21.2,60,30.01,10.0,Calm,Calm,-,N/A,,Overcast,0,2013-03-22 09:35:00
5:55 AM,33.8,21.2,60,30.01,10.0,Calm,Calm,-,N/A,,Overcast,0,2013-03-22 09:55:00
6:15 AM,33.8,21.2,60,30.02,10.0,Calm,Calm,-,N/A,,Overcast,0,2013-03-22 10:15:00
6:35 AM,33.8,21.2,60,30.03,10.0,Calm,Calm,-,N/A,,Overcast,0,2013-03-22 10:35:00
6:55 AM,33.8,21.2,60,30.03,10.0,Calm,Calm,-,N/A,,Overcast,0,2013-03-22 10:55:00
7:15 AM,33.8,21.2,60,30.03,10.0,Calm,Calm,-,N/A,,Overcast,0,2013-03-22 11:15:00
7:35 AM,33.8,21.2,60,30.03,10.0,Calm,Calm,-,N/A,,Overcast,0,2013-03-22 11:35:00
7:55 AM,33.8,21.2,60,30.04,10.0,Calm,Calm,-,N/A,,Overcast,0,2013-03-22 11:55:00
8:15 AM,33.8,23.0,65,30.04,10.0,Calm,Calm,-,N/A,,Overcast,0,2013-03-22 12:15:00
8:35 AM,33.8,23.0,65,30.05,10.0,Calm,Calm,-,N/A,,Overcast,0,2013-03-22 12:35:00
8:55 AM,33.8,23.0,65,30.05,10.0,NNW,3.5,-,N/A,,Overcast,340,2013-03-22 12:55:00
9:15 AM,33.8,23.0,65,30.06,10.0,North,3.5,-,N/A,,Overcast,360,2013-03-22 13:15:00
9:35 AM,33.8,23.0,65,30.06,10.0,Calm,Calm,-,N/A,,Overcast,0,2013-03-22 13:35:00
9:55 AM,35.6,23.0,60,30.06,10.0,North,4.6,-,N/A,,Overcast,360,2013-03-22 13:55:00
10:15 AM,35.6,23.0,60,30.06,10.0,Calm,Calm,-,N/A,,Overcast,0,2013-03-22 14:15:00
10:35 AM,35.6,23.0,60,30.06,10.0,Calm,Calm,-,N/A,,Overcast,0,2013-03-22 14:35:00
10:55 AM,35.6,23.0,60,30.05,10.0,Calm,Calm,-,N/A,,Overcast,0,2013-03-22 14:55:00
11:15 AM,35.6,23.0,60,30.06,10.0,Calm,Calm,-,N/A,,Overcast,0,2013-03-22 15:15:00
11:35 AM,37.4,23.0,56,30.05,10.0,Calm,Calm,-,N/A,,Overcast,0,2013-03-22 15:35:00
11:55 AM,37.4,23.0,56,30.06,10.0,Calm,Calm,-,N/A,,Overcast,0,2013-03-22 15:55:00
12:15 PM,41.0,23.0,49,30.06,10.0,SW,3.5,-,N/A,,Overcast,230,2013-03-22 16:15:00
12:35 PM,41.0,23.0,49,30.08,10.0,WSW,3.5,-,N/A,,Overcast,250,2013-03-22 16:35:00
12:55 PM,41.0,23.0,49,30.07,10.0,Calm,Calm,-,N/A,,Overcast,0,2013-03-22 16:55:00
1:15 PM,42.8,24.8,49,30.06,10.0,Calm,Calm,-,N/A,,Overcast,0,2013-03-22 17:15:00
1:35 PM,42.8,24.8,49,30.05,10.0,Calm,Calm,-,N/A,,Overcast,0,2013-03-22 17:35:00
1:55 PM,44.6,24.8,46,30.05,10.0,Calm,Calm,-,N/A,,Overcast,0,2013-03-22 17:55:00
2:15 PM,44.6,26.6,49,30.05,10.0,South,3.5,-,N/A,,Overcast,180,2013-03-22 18:15:00
2:35 PM,44.6,26.6,49,30.04,10.0,Calm,Calm,-,N/A,,Overcast,0,2013-03-22 18:35:00
2:55 PM,44.6,26.6,49,30.03,10.0,Calm,Calm,-,N/A,,Overcast,0,2013-03-22 18:55:00
3:15 PM,44.6,26.6,49,30.02,10.0,East,3.5,-,N/A,,Overcast,100,2013-03-22 19:15:00
3:35 PM,44.6,28.4,53,30.01,10.0,East,3.5,-,N/A,,Overcast,100,2013-03-22 19:35:00
3:55 PM,46.4,28.4,50,30.00,10.0,Calm,Calm,-,N/A,,Overcast,0,2013-03-22 19:55:00
4:15 PM,46.4,28.4,50,29.99,10.0,Calm,Calm,-,N/A,,Overcast,0,2013-03-22 20:15:00
4:35 PM,46.4,28.4,50,29.99,10.0,Calm,Calm,-,N/A,,Overcast,0,2013-03-22 20:35:00
4:55 PM,46.4,28.4,50,29.99,10.0,Calm,Calm,-,N/A,,Overcast,0,2013-03-22 20:55:00
5:15 PM,46.4,30.2,53,30.00,10.0,Calm,Calm,-,N/A,,Overcast,0,2013-03-22 21:15:00
5:35 PM,46.4,30.2,53,29.99,10.0,Calm,Calm,-,N/A,,Overcast,0,2013-03-22 21:35:00
5:55 PM,46.4,30.2,53,29.99,10.0,Calm,Calm,-,N/A,,Overcast,0,2013-03-22 21:55:00
6:15 PM,46.4,30.2,53,29.99,10.0,Calm,Calm,-,N/A,,Overcast,0,2013-03-22 22:15:00
6:35 PM,46.4,30.2,53,29.99,10.0,Calm,Calm,-,N/A,,Overcast,0,2013-03-22 22:35:00
6:55 PM,46.4,30.2,53,30.00,10.0,Calm,Calm,-,N/A,,Overcast,0,2013-03-22 22:55:00
7:15 PM,46.4,32.0,57,30.00,10.0,Calm,Calm,-,N/A,,Overcast,0,2013-03-22 23:15:00
7:35 PM,44.6,32.0,61,30.00,10.0,Calm,Calm,-,N/A,,Overcast,0,2013-03-22 23:35:00
7:55 PM,44.6,32.0,61,30.00,10.0,Calm,Calm,-,N/A,,Overcast,0,2013-03-22 23:55:00
8:15 PM,44.6,32.0,61,30.00,10.0,Calm,Calm,-,N/A,,Overcast,0,2013-03-23 00:15:00
8:35 PM,44.6,33.8,66,30.00,10.0,Calm,Calm,-,N/A,,Overcast,0,2013-03-23 00:35:00
8:55 PM,44.6,32.0,61,30.02,10.0,Calm,Calm,-,N/A,,Overcast,0,2013-03-23 00:55:00
9:15 PM,44.6,33.8,66,30.02,10.0,Calm,Calm,-,N/A,,Overcast,0,2013-03-23 01:15:00
9:35 PM,44.6,32.0,61,30.02,10.0,Calm,Calm,-,N/A,,Overcast,0,2013-03-23 01:35:00
9:55 PM,44.6,32.0,61,30.02,10.0,Calm,Calm,-,N/A,,Overcast,0,2013-03-23 01:55:00
10:15 PM,44.6,32.0,61,30.01,10.0,Calm,Calm,-,N/A,,Overcast,0,2013-03-23 02:15:00
10:35 PM,42.8,32.0,66,30.03,10.0,Calm,Calm,-,N/A,,Overcast,0,2013-03-23 02:35:00
10:55 PM,42.8,32.0,66,30.02,10.0,Calm,Calm,-,N/A,,Overcast,0,2013-03-23 02:55:00
11:15 PM,42.8,32.0,66,30.03,10.0,Calm,Calm,-,N/A,,Overcast,0,2013-03-23 03:15:00
11:35 PM,42.8,35.6,76,30.02,10.0,Calm,Calm,-,N/A,,Overcast,0,2013-03-23 03:35:00
11:55 PM,42.8,33.8,70,30.02,10.0,Calm,Calm,-,N/A,,Overcast,0,2013-03-23 03:55:00